Regional Weather Roundup
Issued by NWS Burlington, VT

Current Version | Previous Version | Text Only | Print | Product List | Glossary Off
Versions: 1 2 3 4 5 6 7 8 9 10 11 12 13 14 15 16 17 18 19 20 21 22 23 24 25 26 27 28 29 30 31 32 33 34 35 36 37 38 39 40 41 42 43 44 45 46 47 48 49 50

839
ASUS41 KBTV 230810
RWRBTV
VERMONT REGIONAL WEATHER ROUNDUP
NATIONAL WEATHER SERVICE BURLINGTON VT
400 AM EDT SAT JUL 23 2016

NOTE: "FAIR" INDICATES FEW OR NO CLOUDS BELOW 12,000 FEET WITH NO
SIGNIFICANT WEATHER AND/OR OBSTRUCTIONS TO VISIBILITY.

* THESE REPORTS ARE NOT UNDER NWS QUALITY CONTROL AND/OR DO NOT
  REPORT WEATHER SUCH AS PRECIPITATION AND FOG.

VTZ001>019-230900-
_____VERMONT_____


CITY           SKY/WX    TMP DP  RH WIND       PRES   REMARKS
BURLINGTON     MOCLDY    68  64  87 CALM      29.75F
MONTPELIER     FAIR      61  61 100 CALM      29.82S FOG
MORRISVILLE    MOCLDY    64  62  93 CALM      29.78F
ST. JOHNSBURY*   N/A     65  62  90 MISG      29.75S
LYNDONVILLE*     N/A    N/A N/A N/A MISG        N/A
MIDDLEBURY*    FAIR      65  59  80 CALM      29.77S
RUTLAND*       FAIR      66  62  87 SE5       29.79S
SPRINGFIELD    FAIR      66  61  84 CALM      29.78F
HIGHGATE*      FAIR      65  64  96 CALM      29.75S
NEWPORT*       FAIR      62  61  98 CALM      29.77R
BENNINGTON     FAIR      64  61  90 CALM      29.79F
SUTTON*          N/A     63 N/A N/A MISG        N/A

_____LAKE CHAMPLAIN_____


CITY           SKY/WX    TMP DP  RH WIND       PRES   REMARKS
BURTON ISLAND*   N/A     70  66  88 S6          N/A
COLCHESTER RF*   N/A     72  66  83 SW8         N/A
DIAMOND ISL*     N/A     68  66  94 SE3         N/A

$$

NYZ007-026>031-035-052-083-087-230900-
_____NORTHERN NEW YORK_____


CITY           SKY/WX    TMP DP  RH WIND       PRES   REMARKS
PLATTSBURGH    MOCLDY    66  65  96 CALM      29.75S
SARANAC LAKE   CLEAR     58  56  93 CALM      29.82S FOG
MASSENA        CLOUDY    66  61  84 SW6       29.77S
OGDENSBURG*    CLEAR     64  63  94 CALM      29.79S
POTSDAM*       PTCLDY    66  64  94 SW5       29.79S
WATERTOWN      CLOUDY    70  63  78 SW6       29.81R
FT DRUM        MOCLDY    70  62  76 W6        29.81R
ALBANY         CLEAR     76  64  66 W13       29.78F
GLENS FALLS    PTCLDY    67  62  84 CALM      29.77R

$$
NHZ002-005-011-230900-
_____NEW HAMPSHIRE_____


CITY           SKY/WX    TMP DP  RH WIND       PRES   REMARKS
KEENE          CLEAR     66  64  93 CALM      29.78F
MT WASHINGTON  MOCLDY    50  43  76 NW37        N/A
PLYMOUTH       FAIR      65  62  89 N3        29.76S
WHITEFIELD     CLOUDY    64  61  90 CALM      29.77R

$$

_____REGIONAL QUEBEC LOCATIONS_____


CITY           SKY/WX    TMP DP  RH WIND       PRES   REMARKS
MONTREAL       LGT RAIN  72  64  78 SW9       29.73S
QUEBEC CITY    PTCLDY    63  61  94 SW6       29.68S
SHERBROOKE     PTCLDY    63  63 100 SW5       29.73S

_____REGIONAL ONTARIO LOCATIONS_____


CITY           SKY/WX    TMP DP  RH WIND       PRES   REMARKS
OTTAWA         MOCLDY    68  63  83 W6        29.78R

______KEY______
VSB  - VISIBILITY IN MILES
WCI  - WIND CHILL INDEX
HX   - HEAT INDEX
$$
NNNN




USA.gov is the U.S. government's official web portal to all federal, state and local government web resources and services.